FIN19 EFHK-KDFW

Flight info

Callsign FIN19
Flight time N/A
Altitude 36000
Route NEPEK Y361 NISVI DCT VABUB DCT DIVEG DCT VALAK DCT PISEL DCT 70N000E/M084F360 72N020W/M085F380 71N040W 69N050W DCT EPMAN/N0481F380 DCT NALDI DCT TEFFO DCT PIGLA/N0494F400 DCT 50N085W DCT KP09M DCT KG84K DCT KG69I DCT IRK DCT KK45G DCT RZC DCT RRNET BRDJE5
Aircraft A359/H-SDE2E3GHIJ3J4J5LM1ORWXY/LB1D1

Departure

Time N/A
Airport Helsinki Vantaa Airport (EFHK)

Arrival

Time 2026-05-06 15:03
Airport Dallas Fort Worth International Airport (KDFW)
Time Latitude Longitude Altitude Speed Heading
2026-05-06 13:49 38.50292 -93.47715 40114 ft 396 kts 216°
2026-05-06 13:50 38.45201 -93.50408 40112 ft 396 kts 216°
2026-05-06 13:50 38.40115 -93.53094 40112 ft 396 kts 215°
2026-05-06 13:51 38.35023 -93.55778 40111 ft 396 kts 215°
2026-05-06 13:51 38.29926 -93.58460 40110 ft 396 kts 215°
2026-05-06 13:52 38.24865 -93.61120 40110 ft 396 kts 215°
2026-05-06 13:52 38.19772 -93.63791 40113 ft 396 kts 215°
2026-05-06 13:53 38.14683 -93.66457 40114 ft 396 kts 215°
2026-05-06 13:53 38.09590 -93.69119 40110 ft 394 kts 215°
2026-05-06 13:54 38.04528 -93.71759 40118 ft 392 kts 216°
2026-05-06 13:54 37.99482 -93.74394 40123 ft 392 kts 216°
2026-05-06 13:55 37.94433 -93.77025 40118 ft 392 kts 215°
2026-05-06 13:55 37.89386 -93.79650 40116 ft 392 kts 215°
2026-05-06 13:56 37.84372 -93.82252 40130 ft 391 kts 215°
2026-05-06 13:56 37.79340 -93.84858 40124 ft 390 kts 215°
2026-05-06 13:57 37.74319 -93.87458 40118 ft 390 kts 215°
2026-05-06 13:57 37.69296 -93.90058 40116 ft 390 kts 215°
2026-05-06 13:58 37.64264 -93.92654 40094 ft 390 kts 215°
2026-05-06 13:58 37.59242 -93.95241 40128 ft 389 kts 215°
2026-05-06 13:59 37.54226 -93.97823 40125 ft 389 kts 215°
2026-05-06 13:59 37.49004 -93.99902 40127 ft 408 kts 205°
2026-05-06 14:00 37.43255 -94.00768 40129 ft 420 kts 200°
2026-05-06 14:00 37.37408 -94.01316 40127 ft 422 kts 199°
2026-05-06 14:01 37.31562 -94.01830 40127 ft 421 kts 199°
2026-05-06 14:01 37.25719 -94.02379 40125 ft 420 kts 200°
2026-05-06 14:02 37.19871 -94.02949 40120 ft 420 kts 200°
2026-05-06 14:02 37.14081 -94.03516 40111 ft 421 kts 200°
2026-05-06 14:03 37.08234 -94.04089 40115 ft 421 kts 200°
2026-05-06 14:03 37.02386 -94.04658 40111 ft 421 kts 200°
2026-05-06 14:04 36.96531 -94.05225 40114 ft 421 kts 200°
2026-05-06 14:04 36.90687 -94.05792 40080 ft 421 kts 199°
2026-05-06 14:05 36.84862 -94.06360 40110 ft 423 kts 199°
2026-05-06 14:05 36.78979 -94.06929 40112 ft 424 kts 199°
2026-05-06 14:06 36.73094 -94.07495 40112 ft 424 kts 199°
2026-05-06 14:06 36.67199 -94.08061 40064 ft 423 kts 199°
2026-05-06 14:07 36.61351 -94.08626 40109 ft 424 kts 199°
2026-05-06 14:07 36.55447 -94.09194 40104 ft 425 kts 199°
2026-05-06 14:08 36.49553 -94.09757 40094 ft 425 kts 199°
2026-05-06 14:08 36.43657 -94.10321 40095 ft 425 kts 199°
2026-05-06 14:09 36.37807 -94.10880 40096 ft 423 kts 199°
2026-05-06 14:09 36.31944 -94.11438 40100 ft 422 kts 199°
2026-05-06 14:10 36.26136 -94.12169 40111 ft 411 kts 205°
2026-05-06 14:10 36.23404 -94.13010 40111 ft 398 kts 211°
2026-05-06 14:10 36.20848 -94.14211 40112 ft 390 kts 215°
2026-05-06 14:11 36.15889 -94.16887 40090 ft 388 kts 216°
2026-05-06 14:11 36.10945 -94.19576 40121 ft 388 kts 216°
2026-05-06 14:12 36.06008 -94.22255 40087 ft 387 kts 216°
2026-05-06 14:12 36.01068 -94.24931 40088 ft 387 kts 216°
2026-05-06 14:13 35.96127 -94.27603 40099 ft 387 kts 216°
2026-05-06 14:13 35.91181 -94.30273 40076 ft 387 kts 216°
2026-05-06 14:14 35.86242 -94.32936 40072 ft 387 kts 216°
2026-05-06 14:14 35.81331 -94.35580 40052 ft 387 kts 216°
2026-05-06 14:15 35.76394 -94.38236 40058 ft 387 kts 216°
2026-05-06 14:15 35.71444 -94.40896 40047 ft 387 kts 216°
2026-05-06 14:16 35.66500 -94.43547 40024 ft 387 kts 216°
2026-05-06 14:16 35.61559 -94.46192 40057 ft 387 kts 216°
2026-05-06 14:17 35.56652 -94.48815 40050 ft 386 kts 216°
2026-05-06 14:17 35.51725 -94.51447 40054 ft 386 kts 216°
2026-05-06 14:18 35.46791 -94.54079 40060 ft 387 kts 216°
2026-05-06 14:18 35.41851 -94.56710 40056 ft 386 kts 216°
2026-05-06 14:19 35.36947 -94.59319 40057 ft 385 kts 216°
2026-05-06 14:19 35.32031 -94.61929 40053 ft 385 kts 216°
2026-05-06 14:20 35.27112 -94.64540 40050 ft 385 kts 216°
2026-05-06 14:20 35.22189 -94.67149 40041 ft 385 kts 216°
2026-05-06 14:21 35.17268 -94.69753 40044 ft 385 kts 216°
2026-05-06 14:21 35.12349 -94.72352 40026 ft 386 kts 216°
2026-05-06 14:22 35.07449 -94.74940 40032 ft 387 kts 216°
2026-05-06 14:22 35.02509 -94.77542 40026 ft 387 kts 216°
2026-05-06 14:23 34.97566 -94.80144 40027 ft 387 kts 216°
2026-05-06 14:23 34.92621 -94.82743 40023 ft 387 kts 216°
2026-05-06 14:24 34.87674 -94.85341 40011 ft 387 kts 216°
2026-05-06 14:24 34.83900 -94.87384 40026 ft 383 kts 218°
2026-05-06 14:25 34.80199 -94.90259 40017 ft 368 kts 228°
2026-05-06 14:25 34.76280 -94.94241 40019 ft 367 kts 229°
2026-05-06 14:26 34.72382 -94.98245 40013 ft 367 kts 229°
2026-05-06 14:26 34.69137 -95.01562 40011 ft 366 kts 229°
2026-05-06 14:27 34.65233 -95.05543 40015 ft 366 kts 229°
2026-05-06 14:27 34.61329 -95.09518 39994 ft 367 kts 229°
2026-05-06 14:28 34.57407 -95.13506 40006 ft 368 kts 229°
2026-05-06 14:28 34.53482 -95.17489 40003 ft 368 kts 228°
2026-05-06 14:29 34.49551 -95.21475 40004 ft 368 kts 228°
2026-05-06 14:29 34.45621 -95.25459 40000 ft 368 kts 228°
2026-05-06 14:30 34.41680 -95.29430 40005 ft 368 kts 228°
2026-05-06 14:30 34.37741 -95.33394 40004 ft 368 kts 228°
2026-05-06 14:31 34.33824 -95.37333 39992 ft 368 kts 228°
2026-05-06 14:31 34.29876 -95.41300 39999 ft 369 kts 228°
2026-05-06 14:32 34.25923 -95.45266 40006 ft 370 kts 228°
2026-05-06 14:32 34.21963 -95.49235 40011 ft 370 kts 228°
2026-05-06 14:33 34.18030 -95.53175 40013 ft 370 kts 228°
2026-05-06 14:33 34.16045 -95.55153 39822 ft 370 kts 228°
2026-05-06 14:33 34.14056 -95.57138 39588 ft 371 kts 228°
2026-05-06 14:34 34.12064 -95.59123 39354 ft 371 kts 228°
2026-05-06 14:34 34.10076 -95.61102 39122 ft 371 kts 228°
2026-05-06 14:34 34.08090 -95.63085 38824 ft 370 kts 228°
2026-05-06 14:34 34.06102 -95.65070 38600 ft 370 kts 228°
2026-05-06 14:35 34.04121 -95.67040 38108 ft 366 kts 228°
2026-05-06 14:35 34.02160 -95.68989 37500 ft 365 kts 228°
2026-05-06 14:35 34.00229 -95.70911 36880 ft 364 kts 227°
2026-05-06 14:35 33.98280 -95.72849 36230 ft 364 kts 227°
2026-05-06 14:36 33.96326 -95.74793 35579 ft 364 kts 227°
2026-05-06 14:36 33.94365 -95.76743 34897 ft 365 kts 226°
2026-05-06 14:36 33.92411 -95.78681 34408 ft 362 kts 226°
2026-05-06 14:36 33.90474 -95.80602 33894 ft 360 kts 226°
2026-05-06 14:37 33.88547 -95.82511 33350 ft 357 kts 226°
2026-05-06 14:37 33.86639 -95.84400 32822 ft 354 kts 226°
2026-05-06 14:37 33.84746 -95.86274 32342 ft 350 kts 226°
2026-05-06 14:37 33.82874 -95.88126 31837 ft 347 kts 226°
2026-05-06 14:38 33.81021 -95.89958 31301 ft 344 kts 226°
2026-05-06 14:38 33.79182 -95.91777 30856 ft 340 kts 226°
2026-05-06 14:38 33.77362 -95.93576 30370 ft 337 kts 226°
2026-05-06 14:38 33.75555 -95.95361 29878 ft 335 kts 226°
2026-05-06 14:39 33.73647 -95.97060 29477 ft 348 kts 222°
2026-05-06 14:39 33.71630 -95.98718 29066 ft 353 kts 221°
2026-05-06 14:39 33.69622 -96.00362 28675 ft 353 kts 221°
2026-05-06 14:39 33.67601 -96.02030 28280 ft 351 kts 222°
2026-05-06 14:40 33.65600 -96.03694 27874 ft 348 kts 222°
2026-05-06 14:40 33.63619 -96.05347 27483 ft 346 kts 222°
2026-05-06 14:40 33.61650 -96.06994 27106 ft 344 kts 222°
2026-05-06 14:40 33.59695 -96.08632 26715 ft 342 kts 222°
2026-05-06 14:41 33.57750 -96.10261 26345 ft 340 kts 222°
2026-05-06 14:41 33.55819 -96.11878 25954 ft 337 kts 222°
2026-05-06 14:41 33.53898 -96.13486 25572 ft 335 kts 222°
2026-05-06 14:41 33.51991 -96.15084 25179 ft 335 kts 221°
2026-05-06 14:42 33.50101 -96.16667 24804 ft 335 kts 221°
2026-05-06 14:42 33.48194 -96.18262 24442 ft 334 kts 221°
2026-05-06 14:42 33.46291 -96.19850 24066 ft 332 kts 221°
2026-05-06 14:42 33.44398 -96.21431 23692 ft 331 kts 221°
2026-05-06 14:43 33.42514 -96.23004 23283 ft 329 kts 221°
2026-05-06 14:43 33.40639 -96.24568 22892 ft 327 kts 221°
2026-05-06 14:43 33.38774 -96.26123 22523 ft 326 kts 221°
2026-05-06 14:43 33.36920 -96.27669 22158 ft 324 kts 221°
2026-05-06 14:44 33.35075 -96.29206 21794 ft 323 kts 221°
2026-05-06 14:44 33.33233 -96.30740 21430 ft 322 kts 221°
2026-05-06 14:44 33.31401 -96.32265 21064 ft 320 kts 221°
2026-05-06 14:45 33.27761 -96.35292 20346 ft 317 kts 220°
2026-05-06 14:45 33.25952 -96.36794 19988 ft 316 kts 220°
2026-05-06 14:45 33.24152 -96.38289 19632 ft 315 kts 220°
2026-05-06 14:45 33.22357 -96.39780 19278 ft 313 kts 220°
2026-05-06 14:46 33.20569 -96.41263 18920 ft 312 kts 220°
2026-05-06 14:46 33.18787 -96.42740 18580 ft 311 kts 220°
2026-05-06 14:46 33.17034 -96.44194 18211 ft 310 kts 220°
2026-05-06 14:46 33.15266 -96.45659 17836 ft 309 kts 220°
2026-05-06 14:47 33.13503 -96.47119 17487 ft 308 kts 220°
2026-05-06 14:47 33.11742 -96.48576 17129 ft 308 kts 220°
2026-05-06 14:47 33.09979 -96.50035 16774 ft 307 kts 219°
2026-05-06 14:47 33.08223 -96.51488 16429 ft 307 kts 219°
2026-05-06 14:48 33.06473 -96.52933 16084 ft 306 kts 219°
2026-05-06 14:48 33.04725 -96.54377 15735 ft 305 kts 219°
2026-05-06 14:48 33.02982 -96.55816 15403 ft 304 kts 218°
2026-05-06 14:48 33.01242 -96.57252 15070 ft 304 kts 218°
2026-05-06 14:49 32.99508 -96.58682 14732 ft 303 kts 218°
2026-05-06 14:49 32.97775 -96.60110 14375 ft 303 kts 218°
2026-05-06 14:49 32.96039 -96.61541 14050 ft 304 kts 218°
2026-05-06 14:49 32.94298 -96.62974 13690 ft 304 kts 218°
2026-05-06 14:50 32.92558 -96.64406 13372 ft 302 kts 218°
2026-05-06 14:50 32.90863 -96.65796 13168 ft 290 kts 218°
2026-05-06 14:50 32.89236 -96.67130 12956 ft 278 kts 218°
2026-05-06 14:50 32.87659 -96.68426 12584 ft 274 kts 218°
2026-05-06 14:51 32.86134 -96.69679 12299 ft 267 kts 218°
2026-05-06 14:51 32.84607 -96.70935 12005 ft 267 kts 218°
2026-05-06 14:51 32.83083 -96.72187 11693 ft 266 kts 218°
2026-05-06 14:51 32.81558 -96.73441 11387 ft 265 kts 218°
2026-05-06 14:52 32.80037 -96.74689 11072 ft 265 kts 218°
2026-05-06 14:52 32.78508 -96.75942 10913 ft 268 kts 218°
2026-05-06 14:52 32.76984 -96.77193 10442 ft 265 kts 218°
2026-05-06 14:52 32.75454 -96.78450 9561 ft 270 kts 218°
2026-05-06 14:53 32.73908 -96.79725 9333 ft 271 kts 218°
2026-05-06 14:53 32.72359 -96.81009 9324 ft 271 kts 218°
2026-05-06 14:53 32.70814 -96.82289 9324 ft 270 kts 218°
2026-05-06 14:53 32.69277 -96.83579 9309 ft 270 kts 218°
2026-05-06 14:54 32.67771 -96.84875 9309 ft 270 kts 218°
2026-05-06 14:54 32.66253 -96.86188 9308 ft 270 kts 218°
2026-05-06 14:54 32.64735 -96.87501 9308 ft 270 kts 218°
2026-05-06 14:54 32.63213 -96.88820 9309 ft 270 kts 218°
2026-05-06 14:55 32.61693 -96.90136 9138 ft 270 kts 218°
2026-05-06 14:55 32.60198 -96.91432 8637 ft 266 kts 218°
2026-05-06 14:55 32.58705 -96.92741 8067 ft 267 kts 219°
2026-05-06 14:55 32.57379 -96.94265 7399 ft 265 kts 232°
2026-05-06 14:56 32.56484 -96.96178 6574 ft 268 kts 251°
2026-05-06 14:56 32.56256 -96.98358 5790 ft 268 kts 274°
2026-05-06 14:56 32.56882 -97.00404 5385 ft 268 kts 295°
2026-05-06 14:56 32.57993 -97.02183 5078 ft 273 kts 318°
2026-05-06 14:57 32.59555 -97.03474 4793 ft 274 kts 323°
2026-05-06 14:57 32.61174 -97.04653 4396 ft 273 kts 328°
2026-05-06 14:57 32.62915 -97.05461 4034 ft 271 kts 343°
2026-05-06 14:57 32.64772 -97.05705 3882 ft 266 kts 357°
2026-05-06 14:58 32.66574 -97.05625 3869 ft 250 kts
2026-05-06 14:58 32.68243 -97.05562 3919 ft 232 kts 357°
2026-05-06 14:58 32.69792 -97.05568 3941 ft 214 kts 357°
2026-05-06 14:58 32.71214 -97.05570 3941 ft 195 kts 358°
2026-05-06 14:59 32.72540 -97.05559 3754 ft 188 kts 358°
2026-05-06 14:59 32.73840 -97.05555 3481 ft 185 kts 359°
2026-05-06 14:59 32.75123 -97.05549 3192 ft 182 kts
2026-05-06 14:59 32.76372 -97.05543 2940 ft 176 kts
2026-05-06 15:00 32.77557 -97.05535 2706 ft 164 kts
2026-05-06 15:00 32.78638 -97.05531 2495 ft 151 kts
2026-05-06 15:00 32.79641 -97.05525 2290 ft 138 kts
2026-05-06 15:00 32.80565 -97.05520 2051 ft 127 kts
2026-05-06 15:01 32.81421 -97.05514 1882 ft 121 kts
2026-05-06 15:01 32.82258 -97.05511 1731 ft 121 kts
2026-05-06 15:01 32.83100 -97.05505 1595 ft 121 kts 359°
2026-05-06 15:01 32.83942 -97.05504 1433 ft 122 kts
2026-05-06 15:02 32.84789 -97.05498 1243 ft 121 kts 359°
2026-05-06 15:02 32.85643 -97.05490 1109 ft 126 kts
2026-05-06 15:02 32.86499 -97.05486 947 ft 120 kts
2026-05-06 15:02 32.87324 -97.05478 751 ft 119 kts
2026-05-06 15:03 32.88163 -97.05478 624 ft 121 kts
2026-05-06 15:03 32.88922 -97.05476 602 ft 91 kts 359°
2026-05-06 15:03 32.89410 -97.05475 617 ft 48 kts 359°
2026-05-06 15:03 32.89635 -97.05473 618 ft 26 kts
2026-05-06 15:04 32.89800 -97.05463 620 ft 22 kts 13°
2026-05-06 15:04 32.89943 -97.05395 627 ft 26 kts 28°
2026-05-06 15:04 32.90093 -97.05286 623 ft 21 kts 49°
2026-05-06 15:04 32.90117 -97.05106 605 ft 24 kts 90°
2026-05-06 15:05 32.90116 -97.04905 616 ft 23 kts 90°
2026-05-06 15:05 32.90091 -97.04770 621 ft 14 kts 150°
2026-05-06 15:05 32.89977 -97.04763 609 ft 21 kts 180°
2026-05-06 15:05 32.89797 -97.04764 603 ft 28 kts 180°
2026-05-06 15:06 32.89600 -97.04765 611 ft 28 kts 180°
2026-05-06 15:06 32.89433 -97.04753 601 ft 12 kts 145°
2026-05-06 15:06 32.89426 -97.04656 616 ft 19 kts 90°
2026-05-06 15:06 32.89427 -97.04486 616 ft 20 kts 90°
2026-05-06 15:07 32.89426 -97.04340 616 ft 12 kts 89°
2026-05-06 15:07 32.89427 -97.04318 616 ft 0 kts 88°
2026-05-06 15:07 32.89428 -97.04316 616 ft 1 kts 81°
2026-05-06 15:07 32.89432 -97.04311 618 ft 1 kts 53°
2026-05-06 15:08 32.89437 -97.04309 614 ft 1 kts 28°
2026-05-06 15:08 32.89451 -97.04308 619 ft 8 kts
2026-05-06 15:08 32.89503 -97.04293 612 ft 3 kts 18°
2026-05-06 15:08 32.89513 -97.04289 621 ft 0 kts 19°
2026-05-06 15:09 32.89517 -97.04288 612 ft 0 kts 19°